Overview Statistics Trail Chart Weather Telemetry Raw packets
 

This is the latest recevied weather packets stored in our database for station/object K0APR. If no packets are shown the sender has not sent any weather packets the latest 10 day(s).

<< 76 77 78 79 80 81 82 >>
Time Temp. Humidity Pressure Rain* Wind** Luminosity Snow
1788125166 33.89° C 63% 1005.6 hPa 0 mm - 406 W/m² -
1788124861 33.89° C 67% 1005.6 hPa 0 mm - 439 W/m² -
1788124556 33.33° C 68% 1006 hPa 0 mm - 416 W/m² -
1788124255 32.78° C 68% 1006 hPa 0 mm - 405 W/m² -
1788123951 32.78° C 69% 1006 hPa 0 mm - 92 W/m² -
1788123650 32.78° C 68% 1006 hPa 0 mm - 119 W/m² -
1788123348 32.78° C 69% 1006 hPa 0 mm - 171 W/m² -
1788123043 32.78° C 69% 1006.4 hPa 0 mm - 471 W/m² -
1788122742 32.78° C 69% 1006 hPa 0 mm - 483 W/m² -
1788122447 32.22° C 70% 1006.4 hPa 0 mm - 503 W/m² -
1788122139 31.67° C 72% 1006 hPa 0 mm - 137 W/m² -
1788121839 31.67° C 71% 1006.4 hPa 0 mm - 88 W/m² -
1788121539 32.78° C 70% 1006.4 hPa 0 mm - 87 W/m² -
1788121235 32.78° C 69% 1006.4 hPa 0 mm - 504 W/m² -
1788120934 32.22° C 69% 1006.7 hPa 0 mm - 518 W/m² -
1788120629 32.22° C 69% 1006.4 hPa 0 mm - 530 W/m² -
1788120324 31.67° C 70% 1006.7 hPa 0 mm - 508 W/m² -
1788120023 31.67° C 71% 1006.4 hPa 0 mm - 509 W/m² -
1788119719 31.67° C 70% 1006.7 hPa 0 mm - 530 W/m² -
1788119417 32.22° C 69% 1007 hPa 0 mm - 537 W/m² -
1788119117 31.67° C 70% 1007 hPa 0 mm - 553 W/m² -
1788118811 31.67° C 70% 1007 hPa 0 mm - 498 W/m² -
1788118519 31.67° C 70% 1007.4 hPa 0 mm - 557 W/m² -
1788118205 31.11° C 72% 1007 hPa 0 mm - 564 W/m² -
1788117901 31.11° C 71% 1007.4 hPa 0 mm - 566 W/m² -

* Rain latest hour (hover to see other rain measurements)
** Current wind speed in m/s (hover to see current wind gust speed)